St. Petersburg Airport, FL

8:27 PM EDT on October 20, 2017 (GMT -0400)
Saint Petersburg-Clearwater International

Weather History for KPIE - January, 2013

Change the Weather History Date:

Friday, January 11, 2013

  Actual Average Record
Temperature  
Mean Temperature 73 °F -  
Max Temperature 82 °F 69 °F 82 °F (2013)
Min Temperature 64 °F 53 °F 34 °F (1977)
Cooling Degree Days 8    
Growing Degree Days 23 (Base 50)    
Moisture  
Dew Point 63 °F    
Average Humidity 76    
Maximum Humidity 100    
Minimum Humidity 46    
Precipitation  
Precipitation 0.00 in - - ()
Sea Level Pressure  
Sea Level Pressure 30.20 in    
Wind  
Wind Speed 7 mph (ESE)    
Max Wind Speed 17 mph    
Max Gust Speed 18 mph    
Visibility 10 miles    
Events      
Averages and records for this station are not official NWS values.
T = Trace of Precipitation, MM = Missing Value Source: NWS Daily Summary

Daily Weather History Graph

Daily Weather History Graph

Search for Another Location

Airport or City:

Trip Planner

Search our weather history database for the weather conditions in past years. The results will help you decide how hot, cold, wet, or windy it might be!

Date:

Astronomy

Jan. 11, 2013 Rise Set
Actual Time 7:23 AM EST 5:54 PM EST
Civil Twilight 6:57 AM EST 6:19 PM EST
Nautical Twilight 6:29 AM EST 6:48 PM EST
Astronomical Twilight 6:00 AM EST 7:17 PM EST
Moon 6:58 AM EST (1/11) 6:06 PM EST (1/11)
Length of Visible Light 11h 21m
Length of Day
10h 31m
Waning Crescent, 0% of the Moon is Illuminated
Jan 11
Waning Crescent
Jan 11
New
Jan 18
First Quarter
Jan 26
Full
Feb 3
Last Quarter

Hourly Weather History & Observations

Time (EST) Temp. Heat Index Dew Point Humidity Pressure Visibility Wind Dir Wind Speed Gust Speed Precip Events Conditions
12:53 AM 68.0 °F - 63.0 °F 84% 30.26 in 10.0 mi ESE 8.1 mph - N/A   Clear
1:53 AM 66.9 °F - 63.0 °F 87% 30.26 in 10.0 mi SE 6.9 mph - N/A   Clear
2:53 AM 66.0 °F - 63.0 °F 90% 30.25 in 10.0 mi SE 3.5 mph - N/A   Clear
3:53 AM 64.0 °F - 62.1 °F 93% 30.23 in 10.0 mi SE 5.8 mph - N/A   Clear
4:53 AM 64.9 °F - 63.0 °F 93% 30.22 in 10.0 mi SE 3.5 mph - N/A   Clear
5:53 AM 64.9 °F - 63.0 °F 93% 30.22 in 10.0 mi Calm Calm - N/A   Overcast
6:53 AM 64.4 °F - 64.4 °F 100% 30.22 in 10.0 mi East 4.6 mph - N/A   Partly Cloudy
7:53 AM 68.0 °F - 66.0 °F 93% 30.23 in 10.0 mi East 3.5 mph - N/A   Overcast
8:53 AM 70.0 °F - 66.0 °F 87% 30.25 in 10.0 mi ENE 3.5 mph - N/A   Mostly Cloudy
9:53 AM 73.9 °F - 64.9 °F 73% 30.25 in 10.0 mi ESE 9.2 mph - N/A   Clear
10:53 AM 78.1 °F - 66.0 °F 66% 30.24 in 10.0 mi ESE 12.7 mph - N/A   Clear
11:53 AM 79.0 °F - 62.1 °F 56% 30.21 in 10.0 mi SE 17.3 mph - N/A   Clear
12:53 PM 81.0 °F 82.2 °F 63.0 °F 54% 30.18 in 10.0 mi ESE 12.7 mph 18.4 mph N/A   Clear
1:53 PM 82.0 °F 83.0 °F 62.1 °F 51% 30.16 in 10.0 mi SE 12.7 mph - N/A   Partly Cloudy
2:53 PM 82.0 °F 82.7 °F 61.0 °F 49% 30.16 in 10.0 mi SE 9.2 mph - N/A   Clear
3:53 PM 82.9 °F 83.2 °F 60.1 °F 46% 30.15 in 10.0 mi SE 10.4 mph - N/A   Clear
4:53 PM 79.0 °F - 62.1 °F 56% 30.14 in 10.0 mi Variable 6.9 mph - N/A   Clear
5:53 PM 73.9 °F - 63.0 °F 68% 30.15 in 10.0 mi WSW 6.9 mph - N/A   Partly Cloudy
6:53 PM 72.0 °F - 61.0 °F 68% 30.16 in 10.0 mi SSE 4.6 mph - N/A   Scattered Clouds
7:53 PM 69.1 °F - 62.1 °F 78% 30.17 in 10.0 mi ESE 5.8 mph - N/A   Clear
8:53 PM 70.0 °F - 64.0 °F 81% 30.18 in 10.0 mi ESE 4.6 mph - N/A   Partly Cloudy
9:53 PM 71.1 °F - 66.0 °F 84% 30.18 in 10.0 mi East 5.8 mph - N/A   Overcast
10:53 PM 70.0 °F - 66.0 °F 87% 30.19 in 10.0 mi East 5.8 mph - N/A   Clear
11:53 PM 69.8 °F - 66.2 °F 88% 30.20 in 10.0 mi SE 5.8 mph - N/A   Scattered Clouds